{"data":{"norad_id":57354,"intl_designator":"2023-099AC","name":"STARLINK-6293","alt_names":[],"object_type":"PAYLOAD","status":"ACTIVE","operator":null,"country":"US","launch_date":"2023-07-16","launch_site_code":"AFETR","launch_vehicle":null,"mission":null,"orbit_class":"UNKNOWN","rcs_meters":null,"size_class":null,"mass_kg":null,"dimensions":null,"purposes":["comms"],"wikipedia_slug":null,"has_3d_model":false,"image_url":null,"decayed_at":null,"tle_current":{"epoch":"2026-05-25T02:14:10.537728Z","epoch_age_seconds":67774,"freshness":"FRESH","line1":"1 57354U 23099AC  26145.09317752  .00001208  00000+0  53410-4 0  9996","line2":"2 57354  43.0009 170.2405 0001179 272.2650  87.8067 15.27578304157880","mean_motion":15.27578304,"eccentricity":0.0001179,"inclination_deg":43.0009,"raan_deg":170.2405,"arg_perigee_deg":272.265,"mean_anomaly_deg":87.8067,"bstar":5.341e-5,"rev_number":15788,"period_min":94.266853373691,"perigee_km":482.24524003901,"apogee_km":483.86310891796,"semimajor_km":6861.1911744785,"source":"CELESTRAK","updated_at":"2026-05-25T13:38:18.291136Z"}}}